TimePST,TemperatureF,Dew PointF,Humidity,Sea Level PressureIn,VisibilityMPH,Wind Direction,Wind SpeedMPH,Gust SpeedMPH,PrecipitationIn,Events,Conditions,WindDirDegrees,DateUTC
12:58 AM,32.0,30.6,94,30.25,10.0,South,4.6,-,N/A,,Overcast,190,2013-02-12 08:58:00
1:05 AM,32.0,30.2,93,30.18,10.0,South,3.5,-,N/A,,Overcast,190,2013-02-12 09:05:00
1:26 AM,32.0,32.0,100,30.18,10.0,South,4.6,-,N/A,,Overcast,190,2013-02-12 09:26:00
1:55 AM,32.0,30.2,93,30.19,10.0,SSW,5.8,-,N/A,,Overcast,210,2013-02-12 09:55:00
1:58 AM,32.0,30.2,93,30.26,10.0,SSW,4.6,-,0.00,,Overcast,210,2013-02-12 09:58:00
2:18 AM,32.0,30.2,93,30.19,10.0,SSW,5.8,-,N/A,,Overcast,210,2013-02-12 10:18:00
2:27 AM,32.0,28.4,87,30.19,10.0,SSW,6.9,-,N/A,,Overcast,210,2013-02-12 10:27:00
2:42 AM,32.0,28.4,87,30.19,10.0,SW,9.2,-,N/A,,Overcast,220,2013-02-12 10:42:00
2:52 AM,32.0,28.4,87,30.19,10.0,SSW,5.8,-,N/A,,Overcast,210,2013-02-12 10:52:00
2:53 AM,32.0,28.4,87,30.19,10.0,SW,5.8,-,N/A,,Overcast,220,2013-02-12 10:53:00
2:58 AM,30.7,28.9,93,30.26,10.0,SSW,6.9,-,0.00,,Overcast,210,2013-02-12 10:58:00
3:03 AM,32.0,28.4,87,30.19,10.0,SW,8.1,-,N/A,,Overcast,220,2013-02-12 11:03:00
3:12 AM,32.0,28.4,87,30.19,10.0,South,5.8,-,N/A,,Overcast,190,2013-02-12 11:12:00
3:15 AM,30.2,28.4,93,30.19,10.0,SW,8.1,-,N/A,,Overcast,220,2013-02-12 11:15:00
3:25 AM,30.2,28.4,93,30.19,10.0,SW,5.8,-,N/A,,Overcast,220,2013-02-12 11:25:00
3:35 AM,28.4,28.4,100,30.19,10.0,SW,6.9,-,N/A,,Overcast,220,2013-02-12 11:35:00
3:37 AM,28.4,28.4,100,30.19,10.0,SW,8.1,-,N/A,,Overcast,230,2013-02-12 11:37:00
3:42 AM,30.2,28.4,93,30.19,9.0,SW,6.9,-,N/A,,Overcast,230,2013-02-12 11:42:00
3:58 AM,29.5,29.3,99,30.27,8.0,SW,6.9,-,0.00,,Overcast,220,2013-02-12 11:58:00
4:05 AM,30.2,28.4,93,30.20,8.0,SSW,8.1,-,N/A,,Overcast,200,2013-02-12 12:05:00
4:18 AM,28.4,28.4,100,30.20,9.0,SSW,5.8,-,N/A,,Overcast,210,2013-02-12 12:18:00
4:58 AM,29.7,29.1,98,30.28,8.0,SW,4.6,-,0.00,,Overcast,230,2013-02-12 12:58:00
5:28 AM,30.2,28.4,93,30.20,8.0,SW,4.6,-,N/A,,Overcast,220,2013-02-12 13:28:00
5:58 AM,30.0,29.3,97,30.30,8.0,WSW,5.8,-,N/A,,Overcast,240,2013-02-12 13:58:00
6:05 AM,30.2,28.4,93,30.22,8.0,SW,4.6,-,N/A,,Overcast,220,2013-02-12 14:05:00
6:16 AM,30.2,28.4,93,30.22,8.0,SW,4.6,-,N/A,,Overcast,230,2013-02-12 14:16:00
6:58 AM,30.0,29.5,98,30.30,6.0,SSW,3.5,-,0.00,,Overcast,200,2013-02-12 14:58:00
7:43 AM,32.0,30.2,93,30.22,4.0,South,5.8,-,N/A,,Overcast,170,2013-02-12 15:43:00
7:58 AM,30.4,30.2,99,30.30,3.0,SSE,4.6,-,0.00,,Overcast,150,2013-02-12 15:58:00
8:08 AM,32.0,30.2,93,30.24,4.0,South,5.8,-,N/A,,Overcast,190,2013-02-12 16:08:00
8:48 AM,32.0,32.0,100,30.25,7.0,South,5.8,-,N/A,,Overcast,180,2013-02-12 16:48:00
8:58 AM,30.9,30.4,98,30.33,8.0,South,5.8,-,0.00,,Overcast,170,2013-02-12 16:58:00
9:32 AM,32.0,32.0,100,30.24,9.0,SSE,4.6,-,N/A,,Overcast,160,2013-02-12 17:32:00
9:41 AM,32.0,30.2,93,30.24,8.0,South,4.6,-,N/A,,Overcast,180,2013-02-12 17:41:00
9:58 AM,31.5,30.6,96,30.32,8.0,SSE,5.8,-,0.00,,Overcast,150,2013-02-12 17:58:00
10:18 AM,32.0,32.0,100,30.25,7.0,SSW,4.6,-,N/A,,Overcast,210,2013-02-12 18:18:00
10:30 AM,32.0,32.0,100,30.24,7.0,South,8.1,-,N/A,,Overcast,170,2013-02-12 18:30:00
10:50 AM,32.0,32.0,100,30.24,1.8,South,5.8,-,N/A,,Overcast,180,2013-02-12 18:50:00
10:55 AM,32.0,32.0,100,30.24,1.2,South,5.8,-,N/A,,Overcast,170,2013-02-12 18:55:00
10:58 AM,32.0,31.8,99,30.32,1.2,South,6.9,-,0.00,,Overcast,170,2013-02-12 18:58:00
11:03 AM,32.0,32.0,100,30.24,1.2,SSE,8.1,-,N/A,,Overcast,160,2013-02-12 19:03:00
11:08 AM,32.0,32.0,100,30.24,1.5,South,8.1,-,N/A,,Overcast,190,2013-02-12 19:08:00
11:13 AM,32.0,32.0,100,30.25,1.8,SSW,5.8,-,N/A,,Overcast,200,2013-02-12 19:13:00
11:18 AM,32.0,32.0,100,30.25,2.5,South,5.8,-,N/A,,Overcast,190,2013-02-12 19:18:00
11:23 AM,32.0,32.0,100,30.25,4.0,SSW,3.5,-,N/A,,Overcast,210,2013-02-12 19:23:00
11:58 AM,33.3,31.6,94,30.33,10.0,WSW,8.1,-,N/A,,Overcast,240,2013-02-12 19:58:00
11:59 AM,32.0,32.0,100,30.25,10.0,SW,6.9,-,N/A,,Overcast,230,2013-02-12 19:59:00
12:09 PM,32.0,32.0,100,30.25,10.0,SSW,9.2,-,N/A,,Overcast,200,2013-02-12 20:09:00
12:15 PM,33.8,32.0,93,30.25,10.0,SW,5.8,-,N/A,,Overcast,230,2013-02-12 20:15:00
12:33 PM,32.0,32.0,100,30.24,10.0,SSW,8.1,-,N/A,,Overcast,210,2013-02-12 20:33:00
12:41 PM,32.0,32.0,100,30.25,10.0,SSW,6.9,-,N/A,,Mostly Cloudy,200,2013-02-12 20:41:00
12:46 PM,32.0,32.0,100,30.25,10.0,SSW,5.8,-,N/A,,Mostly Cloudy,200,2013-02-12 20:46:00
12:51 PM,33.8,32.0,93,30.25,10.0,SSW,6.9,-,N/A,,Mostly Cloudy,210,2013-02-12 20:51:00
12:58 PM,34.5,31.8,90,30.32,10.0,SSW,6.9,-,0.00,,Mostly Cloudy,200,2013-02-12 20:58:00
1:18 PM,35.6,32.0,87,30.25,10.0,SW,9.2,-,N/A,,Mostly Cloudy,220,2013-02-12 21:18:00
1:23 PM,35.6,32.0,87,30.24,10.0,SW,9.2,-,N/A,,Mostly Cloudy,220,2013-02-12 21:23:00
1:41 PM,37.4,32.0,81,30.24,10.0,SSW,8.1,-,N/A,,Mostly Cloudy,210,2013-02-12 21:41:00
1:46 PM,37.4,32.0,81,30.24,10.0,SSW,8.1,-,N/A,,Mostly Cloudy,200,2013-02-12 21:46:00
1:58 PM,37.0,33.3,86,30.31,10.0,SSW,8.1,-,0.00,,Scattered Clouds,210,2013-02-12 21:58:00
2:19 PM,37.4,33.8,87,30.22,10.0,SSW,13.8,-,N/A,,Mostly Cloudy,200,2013-02-12 22:19:00
2:58 PM,39.9,34.0,79,30.27,10.0,SW,12.7,-,0.00,,Clear,220,2013-02-12 22:58:00
3:00 PM,41.0,33.8,76,30.21,10.0,SSW,15.0,-,N/A,,Clear,210,2013-02-12 23:00:00
3:23 PM,41.0,33.8,76,30.22,10.0,SW,11.5,-,N/A,,Partly Cloudy,230,2013-02-12 23:23:00
3:53 PM,41.0,33.8,76,30.20,10.0,SSW,10.4,-,N/A,,Scattered Clouds,200,2013-02-12 23:53:00
3:58 PM,40.1,33.6,78,30.27,10.0,SSW,12.7,-,0.00,,Scattered Clouds,200,2013-02-12 23:58:00
4:58 PM,37.9,32.0,79,30.27,10.0,SW,10.4,-,N/A,,Mostly Cloudy,220,2013-02-13 00:58:00
5:58 PM,37.9,32.4,80,30.25,10.0,SSW,13.8,-,N/A,,Overcast,200,2013-02-13 01:58:00
6:20 PM,37.4,32.0,81,30.19,10.0,SSW,12.7,-,N/A,,Overcast,200,2013-02-13 02:20:00
6:32 PM,37.4,32.0,81,30.19,10.0,SSW,12.7,-,N/A,,Overcast,210,2013-02-13 02:32:00
6:58 PM,37.8,34.7,89,30.24,10.0,SSW,13.8,-,0.00,,Overcast,200,2013-02-13 02:58:00
7:04 PM,37.4,35.6,93,30.17,10.0,SSW,12.7,-,N/A,,Overcast,200,2013-02-13 03:04:00
7:32 PM,37.4,35.6,93,30.15,10.0,SSE,15.0,-,N/A,,Overcast,160,2013-02-13 03:32:00
7:37 PM,37.4,35.6,93,30.15,10.0,South,16.1,-,N/A,,Mostly Cloudy,170,2013-02-13 03:37:00
7:45 PM,37.4,35.6,93,30.15,10.0,SSW,16.1,-,N/A,,Overcast,200,2013-02-13 03:45:00
7:48 PM,37.4,35.6,93,30.15,10.0,SSW,13.8,-,N/A,,Overcast,200,2013-02-13 03:48:00
7:53 PM,37.4,35.6,93,30.14,10.0,SSW,13.8,-,N/A,,Overcast,200,2013-02-13 03:53:00
7:56 PM,37.4,35.6,93,30.14,10.0,SSW,13.8,-,N/A,,Overcast,200,2013-02-13 03:56:00
7:58 PM,38.1,36.0,92,30.21,10.0,SSW,13.8,-,0.00,,Overcast,200,2013-02-13 03:58:00
8:22 PM,39.2,35.6,87,30.13,10.0,SSW,13.8,-,N/A,,Overcast,200,2013-02-13 04:22:00
8:44 PM,39.2,35.6,87,30.12,10.0,SSW,11.5,-,N/A,,Mostly Cloudy,200,2013-02-13 04:44:00
8:58 PM,38.5,36.0,91,30.19,10.0,SSW,12.7,-,0.00,,Mostly Cloudy,200,2013-02-13 04:58:00
9:23 PM,37.4,35.6,93,30.11,10.0,SSW,16.1,21.9,N/A,,Overcast,200,2013-02-13 05:23:00
9:58 PM,37.9,35.6,91,30.17,10.0,SSW,16.1,24.2,0.00,,Overcast,200,2013-02-13 05:58:00
10:37 PM,37.4,35.6,93,30.10,10.0,South,10.4,20.7,N/A,,Mostly Cloudy,190,2013-02-13 06:37:00
10:58 PM,37.2,35.1,92,30.17,10.0,SSW,10.4,-,0.00,,Mostly Cloudy,200,2013-02-13 06:58:00
10:59 PM,37.4,35.6,93,30.10,10.0,SSW,10.4,-,N/A,Snow,Light Snow,200,2013-02-13 06:59:00
11:14 PM,37.4,33.8,87,30.11,10.0,SSW,8.1,-,N/A,,Mostly Cloudy,200,2013-02-13 07:14:00
11:58 PM,36.9,33.8,89,30.18,10.0,SSW,8.1,-,0.00,,Partly Cloudy,200,2013-02-13 07:58:00
11:59 PM,37.4,33.8,87,30.11,10.0,SSW,8.1,-,N/A,,Partly Cloudy,200,2013-02-13 07:59:00